Showing default

OPS 6564 (VELA 6), 1459

Orbit data source: Space-Track

OPS 6564 (VELA 6), 1459 is a payload satellite owned by USAF SSD (US) in HEO that was launched on Tue, 20 Jul 1965 UTC via an ATLAS AGENA D launch vehicle from the Air Force Eastern Test Range (AFETR). Payload-class satellites include a variety of spacecraft equipped with specific instruments for various scientific and technological missions. These include communications satellites like Starlink; space stations such as the ISS; scientific satellites like the Hubble; Earth observation satellites from companies like Planet Labs, Umbra, and HawkEye 360; GPS; miniature CubeSats for education and research; and military/defense satellites.

Loading next visibility...
Identifier
1459, 1965-058B
Orbit
HEO
Country
Flag of USUS
Related business
Manufacturer
TRW
Mission
Spacecraft
Bus & Motor
VELA, BE-3A
Mass
~224 kg wet, 132 kg dry
Launch date (UTC)
1965-07-20 (61 years ago)
Launch vehicle
ATLAS AGENA D
Launch site
Air Force Eastern Test Range (AFETR)
Object type
Payload
Rocket body
Debris
Shape & HBR
Unknown
Radar Cross Section
RCS unknown

Expand to show TLE details & history
Last TLE update: 1 month ago

TLE from 1 month ago
0 OPS 6564 (VELA 6)
1 01459U 65058B   26040.09582152 -.00001145  00000-0  00000-0 0  9999
2 01459  41.3237   3.5904 4837902  88.4887   1.3826  0.21370909  8973
Epoch: 2026-02-09T02:17Z
TLE epoch observation values (Epoch: 2026-02-09T02:17:58.979Z)
Latitude
41.33717°
Longitude
-79.90113°
Altitude
54,697.865 km
Speed
3.112 km/s
True Right ascension
06h 15m 09s
True Declination
41° 19' 02"
Sunlit
Object was in daylight at epoch
Visualization orbit readout
Latitude
Unknown
Longitude
Unknown
Altitude
Unknown
Speed
Unknown
Apparent Right ascension
Unknown
Apparent Declination
Unknown
Sunlit
N/A
Visualization observer readout
Local Sidereal Time
08:32:42
Azimuth
Unknown
Elevation
Unknown
Doppler factor
Unknown
Orbital elements
Apogee altitude
168,966.835 km
Perigee altitude
54,624.283 km
Semi-major axis
118,173.696 km
Eccentricity
0.48379
Inclination
41.3237°
RAAN
3.5904°
Arg. of periapsis
88.4887°
True anomaly
4.53782°
Mean anomaly
1.3826°
Eccentric anomaly
2.67746°
Mean motion
0.05343 °/min
Orbital period
6,738.15 mins
BSTAR
0
Loading maneuver chart data...
Computing Atmospheric mass density...
Loading historical data...
Loading historical data...
Loading historical data...
Loading historical data...
Loading historical data...
Loading historical data...
Loading historical data...
Other satellites on launch #58 in the year 1965 (1965-07-20 UTC)

Documentation

Showing up to 5 results
|